Flag for Syria Weather past 2 weeks in Aleppo, Syria

Now
74 °F

Clear.


Feels Like: 77 °F
Forecast: 66 / 85 °F
Wind: No wind

Location: Iskenderun

Current Time: Oct 1, 2014 at 11:35:51 PM

Latest Report: Oct 1, 2014 at 9:00 PM


Visibility: 13 mi

Pressure: 29.95 "Hg

Humidity: 45%

Dew point: 52 °F

Location of AleppoLocation

Historic Weather in Aleppo — Graph

°F

Aleppo temperature yesterday

Maximum temperature yesterday: 80 °F (at 5:00 PM)
Minimum temperature yesterday: 67 °F (at 6:00 AM)
Average temperature yesterday: 75 °F

Past Weeks' High & Low Weather Summary

 TemperatureHumidityPressure
High86 °F (Sep 24, 10:00 AM)90% (Sep 28, 3:00 AM)30.03 "Hg (Sep 28, 3:00 AM)
Low65 °F (Sep 29, 3:00 AM)26% (Sep 21, 3:00 PM)29.72 "Hg (Sep 28, 6:00 AM)
Average79 °F57%29.86 "Hg
* Reported Sep 16 9:00 PM — Oct 1 9:00 PM, Aleppo, Weather by CustomWeather, © 2014

Note: Actual official high and low records may vary slightly from our data, if they occured in-between our weather recording intervals... More about our weather records

Advertising

Aleppo weather history for previous 24 hours

 ConditionsComfort  
Time TempWeatherWind HumidityBarometerVisibility
9:00 PM
Oct 1
74 °FClear.No wind45%29.95 "Hg12 mi
8:00 PM77 °FClear.1 mph41%29.94 "Hg12 mi
7:00 PM78 °FClear.No wind44%29.93 "Hg12 mi
6:00 PM80 °FSunny.1 mph34%29.92 "Hg12 mi
5:00 PM83 °FSunny.1 mph30%29.92 "Hg12 mi
4:00 PM83 °FSunny.3 mph27%29.93 "Hg12 mi
3:00 PM82 °FSunny.5 mph28%29.94 "Hg12 mi
2:00 PM82 °FSunny.5 mph31%29.96 "Hg12 mi
1:00 PM80 °FSunny.5 mph34%29.98 "Hg9 mi
12:00 PM78 °FSunny.5 mph44%30.00 "Hg12 mi
11:00 AM79 °FSunny.1 mph32%30.01 "Hg12 mi
10:00 AM78 °FSunny.1 mph36%30.01 "Hg12 mi
9:00 AM75 °FSunny.1 mph41%30.01 "Hg12 mi
6:00 AM66 °FClear.1 mph51%30.00 "Hg12 mi
3:00 AM67 °FClear.2 mph51%30.00 "Hg12 mi
2:00 AMN/APassing clouds.N/AN/AN/A1 mi
12:00 AM69 °FClear.1 mph47%30.01 "Hg12 mi
Weather by CustomWeather, © 2014

See weather overviewHow to use our weather pages